Torna al catalogo

STARLINK-35988

AttivoComunicazioniVLEO
NORAD 66615·PAYLOAD·🇺🇸 United States

Lanciato Nov 22, 2025 da Cape Canaveral Space Force Station

Loading…

Prossimi Passaggi (prossime 24 ore)

TLE

AggiornatoSource: CelesTrak SupGP

Epoca: Sep 14, 2026, 21:40 UTC

1 66615C 25270AD  26257.90326389  .00050834  00000+0  18414-2 0  2578
2 66615  43.0001  67.4919 0001444 273.7738 131.5933 15.27549748    18

Traccia STARLINK-35988 in tempo reale con AllMySat

Download on the App Store